Powrót do katalogu

CLOUDSAT

AktywnyPogodaPO
NORAD 29107·PAYLOAD·🇺🇸 United States

Wystrzelony Apr 28, 2006 z Vandenberg Space Force Base

Loading…

Następne Przeloty (najbliższe 24 godziny)

TLE

ŚwieżeSource: Space-Track

Epoka: Sep 14, 2026, 14:38 UTC

1 29107U 06016A   26257.60992342  .00000659  00000-0  81297-4 0  9990
2 29107  98.3854 299.8317 0006163  52.4986 307.6788 14.86536897 87794

Śledź CLOUDSAT w czasie rzeczywistym z AllMySat

Download on the App Store